QPF
0.00 0.01 0.01 0.01 0.01 0.01 0.00 0.00 0.00 0.00 0.01 0.01 0.01 0.01 0.01 0.02 0.02 0.02 0.03 0.02 0.03 0.02 0.01 0.01 0.01 0.01 0.01 0.01 0.01 0.01 0.01 0.01 0.00 0.00 0.00 0.01 0.01 0.01 0.01 0.01 0.01 0.01 0.02
0.00 0.00 0.01 0.01 0.01 0.01 0.00 0.00 0.00 0.00 0.01 0.01 0.01 0.01 0.02 0.01 0.02 0.03 0.03 0.02 0.03 0.02 0.01 0.01 0.01 0.01 0.01 0.01 0.00 0.00 0.00 0.00 0.00 0.00 0.00 0.00 0.00 0.00 0.00 0.00 0.00 0.01 0.01
0.00 0.00 0.01 0.01 0.01 0.01 0.00 0.00 0.00 0.01 0.01 0.01 0.01 0.02 0.02 0.02 0.02 0.02 0.02 0.03 0.03 0.02 0.02 0.01 0.01 0.01 0.00 0.00 0.00 0.00 0.00 0.00 0.00 0.00 0.00 0.00 0.01 0.01 0.01 0.01 0.01 0.01 0.01
0.00 0.00 0.01 0.01 0.01 0.01 0.00 0.00 0.00 0.01 0.01 0.01 0.01 0.02 0.02 0.02 0.02 0.02 0.03 0.03 0.03 0.02 0.02 0.01 0.01 0.00 0.00 0.00 0.00 0.00 0.00 0.00 0.00 0.00 0.00 0.00 0.00 0.01 0.01 0.01 0.01 0.01 0.01
0.00 0.00 0.01 0.01 0.01 0.01 0.00 0.00 0.00 0.01 0.01 0.01 0.01 0.02 0.02 0.02 0.02 0.02 0.02 0.03 0.03 0.02 0.01 0.00 0.00 0.00 0.00 0.00 0.00 0.00 0.00 0.00 0.00 0.00 0.00 0.00 0.00 0.00 0.00 0.00 0.01 0.01 0.02
0.01 0.01 0.02 0.02 0.02 0.01 0.00 0.00 0.00 0.01 0.01 0.01 0.01 0.02 0.02 0.02 0.02 0.03 0.02 0.02 0.02 0.01 0.00 0.00 0.00 0.00 0.00 0.00 0.00 0.00 0.00 0.00 0.00 0.00 0.00 0.00 0.00 0.00 0.00 0.00 0.00 0.00 0.00
0.01 0.02 0.02 0.02 0.02 0.02 0.00 0.00 0.01 0.01 0.01 0.01 0.01 0.02 0.02 0.03 0.03 0.03 0.01 0.01 0.01 0.01 0.00 0.00 0.00 0.00 0.00 0.00 0.00 0.00 0.00 0.00 0.00 0.00 0.00 0.00 0.00 0.00 0.00 0.00 0.00 0.00 0.00
0.02 0.03 0.04 0.05 0.04 0.02 0.01 0.01 0.01 0.01 0.01 0.01 0.02 0.03 0.03 0.03 0.03 0.02 0.01 0.01 0.01 0.00 0.00 0.00 0.00 0.00 0.00 0.00 0.00 0.00 0.00 0.00 0.00 0.00 0.00 0.00 0.00 0.00 0.00 0.00 0.00 0.00 0.00
0.04 0.05 0.06 0.07 0.06 0.04 0.02 0.01 0.01 0.01 0.01 0.02 0.02 0.03 0.03 0.03 0.02 0.01 0.01 0.01 0.01 0.00 0.00 0.00 0.00 0.00 0.00 0.00 0.00 0.00 0.00 0.00 0.00 0.00 0.00 0.00 0.00 0.00 0.00 0.00 0.00 0.00 0.00
0.09 0.08 0.09 0.08 0.07 0.04 0.02 0.02 0.01 0.01 0.01 0.02 0.02 0.02 0.03 0.02 0.02 0.01 0.01 0.01 0.00 0.00 0.00 0.00 0.00 0.00 0.00 0.00 0.00 0.00 0.00 0.00 0.00 0.00 0.00 0.00 0.00 0.00 0.00 0.00 0.00 0.00 0.00
0.14 0.12 0.10 0.11 0.08 0.04 0.02 0.02 0.02 0.01 0.01 0.01 0.01 0.01 0.02 0.02 0.01 0.01 0.01 0.00 0.00 0.00 0.00 0.00 0.00 0.00 0.00 0.00 0.00 0.00 0.00 0.00 0.00 0.00 0.00 0.00 0.00 0.00 0.00 0.00 0.00 0.00 0.00
0.15 0.15 0.12 0.11 0.09 0.07 0.04 0.03 0.03 0.02 0.02 0.01 0.01 0.01 0.01 0.01 0.01 0.01 0.01 0.00 0.00 0.00 0.00 0.00 0.00 0.00 0.00 0.00 0.00 0.00 0.00 0.00 0.00 0.00 0.00 0.00 0.00 0.00 0.00 0.00 0.00 0.00 0.00
0.16 0.16 0.16 0.13 0.10 0.08 0.05 0.03 0.02 0.02 0.02 0.01 0.01 0.01 0.01 0.01 0.01 0.01 0.01 0.01 0.00 0.00 0.01 0.00 0.00 0.00 0.00 0.00 0.00 0.00 0.00 0.00 0.00 0.00 0.00 0.00 0.00 0.00 0.00 0.00 0.00 0.00 0.00
0.21 0.17 0.18 0.15 0.12 0.09 0.07 0.04 0.02 0.01 0.01 0.01 0.01 0.01 0.00 0.00 0.00 0.00 0.01 0.01 0.01 0.00 0.01 0.00 0.00 0.00 0.00 0.00 0.00 0.00 0.00 0.00 0.00 0.00 0.00 0.00 0.00 0.00 0.00 0.00 0.00 0.00 0.00
0.27 0.21 0.19 0.17 0.14 0.12 0.11 0.07 0.04 0.01 0.00 0.00 0.00 0.00 0.00 0.00 0.00 0.00 0.00 0.00 0.00 0.00 0.00 0.00 0.00 0.00 0.00 0.00 0.00 0.00 0.00 0.00 0.00 0.00 0.00 0.00 0.00 0.00 0.00 0.00 0.00 0.00 0.00
0.32 0.26 0.22 0.19 0.16 0.13 0.15 0.11 0.05 0.02 0.01 0.01 0.00 0.00 0.00 0.00 0.00 0.00 0.00 0.00 0.00 0.00 0.00 0.00 0.00 0.00 0.00 0.00 0.00 0.00 0.00 0.00 0.00 0.00 0.00 0.00 0.00 0.00 0.00 0.00 0.00 0.01 0.01
0.37 0.31 0.24 0.20 0.18 0.16 0.16 0.15 0.08 0.04 0.02 0.01 0.01 0.01 0.01 0.01 0.01 0.01 0.01 0.01 0.01 0.01 0.01 0.01 0.00 0.00 0.00 0.00 0.00 0.00 0.00 0.00 0.00 0.00 0.00 0.00 0.00 0.00 0.00 0.00 0.00 0.01 0.01
0.39 0.35 0.28 0.22 0.20 0.19 0.16 0.17 0.13 0.06 0.03 0.01 0.01 0.01 0.01 0.01 0.01 0.01 0.01 0.01 0.02 0.02 0.01 0.01 0.01 0.00 0.01 0.00 0.00 0.00 0.00 0.00 0.00 0.00 0.00 0.00 0.00 0.00 0.00 0.00 0.00 0.00 0.00
0.44 0.37 0.31 0.24 0.24 0.25 0.21 0.16 0.17 0.09 0.05 0.03 0.02 0.02 0.01 0.01 0.01 0.01 0.01 0.01 0.01 0.01 0.01 0.01 0.01 0.01 0.01 0.00 0.00 0.00 0.00 0.00 0.00 0.00 0.00 0.00 0.00 0.00 0.00 0.00 0.00 0.00 0.00
0.57 0.48 0.37 0.30 0.23 0.26 0.27 0.20 0.18 0.13 0.07 0.05 0.03 0.03 0.02 0.02 0.02 0.02 0.01 0.01 0.01 0.01 0.01 0.01 0.01 0.00 0.00 0.00 0.00 0.00 0.00 0.00 0.00 0.00 0.00 0.00 0.00 0.00 0.00 0.00 0.00 0.00 0.00
0.59 0.58 0.48 0.36 0.30 0.28 0.31 0.25 0.17 0.13 0.10 0.09 0.08 0.05 0.04 0.04 0.03 0.03 0.03 0.02 0.02 0.02 0.02 0.02 0.01 0.01 0.01 0.01 0.00 0.00 0.00 0.00 0.00 0.00 0.00 0.00 0.00 0.00 0.00 0.00 0.00 0.00 0.00
0.52 0.54 0.49 0.42 0.35 0.34 0.36 0.34 0.25 0.18 0.15 0.12 0.10 0.08 0.06 0.05 0.04 0.04 0.04 0.04 0.04 0.05 0.05 0.04 0.03 0.03 0.02 0.02 0.01 0.01 0.01 0.00 0.00 0.00 0.00 0.00 0.00 0.00 0.00 0.00 0.00 0.00 0.00
0.37 0.47 0.44 0.41 0.35 0.31 0.37 0.44 0.41 0.32 0.24 0.17 0.11 0.10 0.09 0.09 0.09 0.07 0.07 0.06 0.05 0.06 0.06 0.06 0.05 0.04 0.03 0.02 0.02 0.02 0.02 0.01 0.00 0.00 0.00 0.00 0.00 0.00 0.00 0.00 0.00 0.00 0.00
0.23 0.33 0.39 0.43 0.42 0.32 0.32 0.39 0.45 0.43 0.30 0.21 0.17 0.15 0.15 0.15 0.14 0.14 0.12 0.11 0.08 0.06 0.06 0.07 0.07 0.06 0.05 0.04 0.04 0.03 0.03 0.02 0.02 0.01 0.00 0.00 0.00 0.00 0.00 0.00 0.00 0.00 0.00
0.15 0.23 0.31 0.35 0.45 0.40 0.32 0.35 0.43 0.49 0.47 0.37 0.29 0.25 0.22 0.20 0.19 0.17 0.15 0.15 0.13 0.11 0.08 0.07 0.07 0.07 0.06 0.05 0.04 0.03 0.02 0.02 0.02 0.02 0.01 0.00 0.00 0.00 0.00 0.00 0.00 0.00 0.00
0.08 0.12 0.18 0.23 0.33 0.41 0.40 0.41 0.43 0.47 0.52 0.49 0.39 0.33 0.29 0.24 0.22 0.21 0.20 0.18 0.16 0.14 0.12 0.11 0.09 0.07 0.05 0.04 0.04 0.03 0.03 0.02 0.02 0.02 0.02 0.01 0.01 0.00 0.00 0.00 0.00 0.00 0.00
MSLP
1008.11 1008.21 1008.56 1009.11 1009.76 1010.40 1010.95 1011.37 1011.66 1011.86 1012.03 1012.24 1012.55 1012.94 1013.42 1013.93 1014.42 1014.84 1015.18 1015.42 1015.61 1015.76 1015.93 1016.13 1016.35 1016.58 1016.80 1016.97 1017.08 1017.13 1017.15 1017.16 1017.19 1017.26 1017.38 1017.53 1017.67 1017.78 1017.84 1017.84 1017.80 1017.72 1017.64
1007.64 1007.82 1008.27 1008.92 1009.66 1010.38 1011.00 1011.46 1011.77 1011.98 1012.15 1012.36 1012.65 1013.04 1013.52 1014.03 1014.52 1014.94 1015.28 1015.52 1015.71 1015.88 1016.08 1016.31 1016.58 1016.86 1017.12 1017.32 1017.45 1017.52 1017.53 1017.54 1017.57 1017.64 1017.77 1017.94 1018.11 1018.25 1018.33 1018.35 1018.31 1018.23 1018.15
1007.19 1007.45 1007.99 1008.74 1009.58 1010.38 1011.06 1011.57 1011.91 1012.13 1012.30 1012.50 1012.78 1013.16 1013.62 1014.11 1014.59 1015.00 1015.32 1015.57 1015.77 1015.97 1016.20 1016.48 1016.80 1017.13 1017.44 1017.68 1017.83 1017.90 1017.91 1017.91 1017.92 1017.99 1018.12 1018.29 1018.48 1018.64 1018.76 1018.81 1018.79 1018.73 1018.66
1006.84 1007.17 1007.80 1008.64 1009.55 1010.41 1011.14 1011.69 1012.05 1012.28 1012.45 1012.64 1012.91 1013.27 1013.70 1014.17 1014.63 1015.03 1015.35 1015.60 1015.82 1016.05 1016.32 1016.65 1017.03 1017.41 1017.76 1018.03 1018.20 1018.27 1018.27 1018.25 1018.24 1018.29 1018.40 1018.57 1018.77 1018.96 1019.11 1019.20 1019.22 1019.20 1019.16
1006.66 1007.07 1007.76 1008.64 1009.59 1010.48 1011.23 1011.78 1012.15 1012.39 1012.56 1012.74 1013.00 1013.34 1013.76 1014.22 1014.67 1015.06 1015.39 1015.67 1015.92 1016.18 1016.50 1016.87 1017.28 1017.70 1018.08 1018.37 1018.56 1018.63 1018.62 1018.57 1018.53 1018.55 1018.64 1018.80 1019.00 1019.21 1019.39 1019.52 1019.59 1019.61 1019.60
1006.70 1007.14 1007.85 1008.74 1009.68 1010.56 1011.29 1011.84 1012.20 1012.43 1012.60 1012.78 1013.04 1013.39 1013.81 1014.27 1014.72 1015.14 1015.49 1015.80 1016.08 1016.39 1016.73 1017.14 1017.58 1018.02 1018.41 1018.71 1018.90 1018.96 1018.94 1018.87 1018.81 1018.80 1018.87 1019.01 1019.20 1019.42 1019.62 1019.78 1019.89 1019.95 1019.98
1006.91 1007.35 1008.05 1008.90 1009.80 1010.63 1011.32 1011.83 1012.17 1012.40 1012.58 1012.78 1013.05 1013.41 1013.85 1014.33 1014.82 1015.27 1015.66 1016.01 1016.33 1016.67 1017.04 1017.46 1017.90 1018.34 1018.73 1019.03 1019.20 1019.27 1019.24 1019.16 1019.08 1019.05 1019.09 1019.21 1019.40 1019.61 1019.82 1020.00 1020.14 1020.24 1020.29
1007.21 1007.63 1008.27 1009.05 1009.87 1010.63 1011.27 1011.75 1012.09 1012.32 1012.52 1012.75 1013.05 1013.44 1013.91 1014.43 1014.95 1015.44 1015.89 1016.28 1016.65 1017.01 1017.40 1017.81 1018.23 1018.65 1019.01 1019.29 1019.46 1019.52 1019.49 1019.41 1019.34 1019.30 1019.33 1019.44 1019.61 1019.81 1020.02 1020.21 1020.37 1020.48 1020.55
1007.51 1007.87 1008.43 1009.11 1009.84 1010.53 1011.13 1011.60 1011.96 1012.23 1012.47 1012.74 1013.08 1013.51 1014.00 1014.56 1015.12 1015.65 1016.15 1016.59 1016.99 1017.37 1017.75 1018.14 1018.53 1018.90 1019.23 1019.47 1019.63 1019.69 1019.68 1019.62 1019.57 1019.55 1019.58 1019.69 1019.85 1020.04 1020.25 1020.43 1020.58 1020.69 1020.76
1007.72 1007.99 1008.45 1009.03 1009.68 1010.32 1010.90 1011.40 1011.80 1012.14 1012.45 1012.78 1013.16 1013.62 1014.14 1014.71 1015.29 1015.87 1016.40 1016.87 1017.30 1017.70 1018.07 1018.43 1018.77 1019.08 1019.35 1019.56 1019.70 1019.77 1019.79 1019.77 1019.76 1019.77 1019.83 1019.95 1020.11 1020.30 1020.49 1020.66 1020.80 1020.90 1020.96
1007.79 1007.96 1008.30 1008.78 1009.36 1009.99 1010.60 1011.16 1011.66 1012.09 1012.49 1012.88 1013.30 1013.77 1014.30 1014.87 1015.45 1016.04 1016.59 1017.10 1017.55 1017.95 1018.31 1018.63 1018.92 1019.17 1019.39 1019.56 1019.69 1019.77 1019.82 1019.86 1019.90 1019.96 1020.06 1020.20 1020.37 1020.55 1020.73 1020.89 1021.01 1021.10 1021.14
1007.71 1007.76 1007.98 1008.39 1008.93 1009.56 1010.24 1010.90 1011.52 1012.07 1012.57 1013.03 1013.49 1013.96 1014.46 1015.00 1015.57 1016.15 1016.71 1017.23 1017.70 1018.10 1018.45 1018.74 1018.99 1019.19 1019.36 1019.49 1019.61 1019.70 1019.79 1019.88 1019.98 1020.10 1020.24 1020.41 1020.59 1020.77 1020.95 1021.09 1021.20 1021.27 1021.30
1007.51 1007.43 1007.55 1007.89 1008.41 1009.08 1009.84 1010.63 1011.39 1012.08 1012.68 1013.21 1013.69 1014.14 1014.61 1015.10 1015.63 1016.18 1016.73 1017.26 1017.74 1018.16 1018.51 1018.78 1018.99 1019.15 1019.28 1019.39 1019.49 1019.60 1019.72 1019.85 1020.00 1020.17 1020.36 1020.55 1020.74 1020.93 1021.09 1021.22 1021.32 1021.38 1021.41
1007.23 1007.04 1007.06 1007.34 1007.86 1008.59 1009.45 1010.36 1011.26 1012.08 1012.79 1013.37 1013.86 1014.29 1014.70 1015.14 1015.61 1016.13 1016.67 1017.20 1017.70 1018.14 1018.49 1018.77 1018.96 1019.10 1019.20 1019.29 1019.38 1019.50 1019.64 1019.80 1019.99 1020.19 1020.40 1020.60 1020.80 1020.98 1021.13 1021.25 1021.34 1021.40 1021.43
1006.92 1006.64 1006.58 1006.81 1007.33 1008.11 1009.06 1010.10 1011.12 1012.05 1012.84 1013.47 1013.96 1014.36 1014.73 1015.10 1015.53 1016.01 1016.54 1017.08 1017.60 1018.07 1018.45 1018.73 1018.93 1019.06 1019.15 1019.23 1019.32 1019.43 1019.57 1019.75 1019.95 1020.15 1020.36 1020.56 1020.74 1020.90 1021.04 1021.15 1021.24 1021.30 1021.33
1006.63 1006.28 1006.16 1006.36 1006.88 1007.68 1008.70 1009.82 1010.94 1011.96 1012.81 1013.48 1013.97 1014.35 1014.68 1015.01 1015.39 1015.85 1016.37 1016.93 1017.48 1017.97 1018.38 1018.70 1018.91 1019.05 1019.14 1019.22 1019.30 1019.41 1019.54 1019.71 1019.89 1020.07 1020.25 1020.41 1020.56 1020.68 1020.80 1020.90 1020.98 1021.05 1021.10
1006.36 1005.97 1005.82 1006.00 1006.51 1007.33 1008.38 1009.55 1010.72 1011.80 1012.69 1013.38 1013.88 1014.25 1014.56 1014.86 1015.23 1015.68 1016.20 1016.77 1017.35 1017.87 1018.32 1018.66 1018.91 1019.07 1019.17 1019.25 1019.33 1019.43 1019.55 1019.68 1019.81 1019.95 1020.07 1020.18 1020.27 1020.35 1020.44 1020.52 1020.60 1020.68 1020.75
1006.12 1005.74 1005.58 1005.75 1006.25 1007.06 1008.11 1009.29 1010.48 1011.56 1012.48 1013.18 1013.70 1014.08 1014.39 1014.70 1015.07 1015.52 1016.05 1016.63 1017.22 1017.77 1018.24 1018.62 1018.89 1019.08 1019.20 1019.30 1019.38 1019.47 1019.56 1019.65 1019.73 1019.80 1019.85 1019.88 1019.91 1019.94 1019.99 1020.05 1020.14 1020.23 1020.32
1005.90 1005.56 1005.43 1005.60 1006.08 1006.88 1007.90 1009.04 1010.21 1011.28 1012.20 1012.91 1013.45 1013.86 1014.20 1014.53 1014.92 1015.38 1015.92 1016.51 1017.10 1017.66 1018.14 1018.54 1018.84 1019.05 1019.21 1019.33 1019.42 1019.51 1019.57 1019.62 1019.64 1019.64 1019.61 1019.57 1019.53 1019.51 1019.52 1019.57 1019.66 1019.76 1019.87
1005.70 1005.43 1005.35 1005.54 1006.02 1006.77 1007.74 1008.84 1009.95 1010.99 1011.88 1012.61 1013.17 1013.62 1014.00 1014.37 1014.79 1015.27 1015.81 1016.39 1016.97 1017.52 1018.00 1018.40 1018.72 1018.97 1019.16 1019.31 1019.43 1019.52 1019.57 1019.58 1019.55 1019.48 1019.38 1019.27 1019.17 1019.11 1019.10 1019.14 1019.24 1019.36 1019.48
1005.51 1005.34 1005.33 1005.55 1006.02 1006.74 1007.65 1008.67 1009.71 1010.69 1011.56 1012.29 1012.88 1013.37 1013.80 1014.22 1014.68 1015.17 1015.71 1016.27 1016.82 1017.35 1017.81 1018.21 1018.54 1018.82 1019.04 1019.23 1019.38 1019.49 1019.54 1019.54 1019.47 1019.35 1019.19 1019.03 1018.89 1018.80 1018.78 1018.83 1018.93 1019.08 1019.23
1005.36 1005.29 1005.36 1005.62 1006.09 1006.77 1007.60 1008.54 1009.50 1010.42 1011.26 1011.98 1012.59 1013.12 1013.61 1014.08 1014.56 1015.07 1015.60 1016.13 1016.65 1017.13 1017.57 1017.96 1018.30 1018.60 1018.87 1019.10 1019.30 1019.43 1019.50 1019.50 1019.41 1019.26 1019.07 1018.88 1018.72 1018.62 1018.60 1018.67 1018.80 1018.96 1019.13
1005.25 1005.28 1005.42 1005.72 1006.20 1006.83 1007.60 1008.44 1009.32 1010.17 1010.96 1011.67 1012.30 1012.88 1013.41 1013.92 1014.44 1014.96 1015.47 1015.97 1016.45 1016.89 1017.30 1017.67 1018.02 1018.35 1018.66 1018.95 1019.19 1019.36 1019.46 1019.47 1019.39 1019.24 1019.04 1018.84 1018.68 1018.59 1018.58 1018.67 1018.82 1019.01 1019.19
1005.22 1005.32 1005.52 1005.85 1006.32 1006.91 1007.60 1008.36 1009.14 1009.92 1010.66 1011.36 1012.00 1012.61 1013.19 1013.74 1014.28 1014.81 1015.32 1015.79 1016.23 1016.64 1017.03 1017.39 1017.75 1018.11 1018.46 1018.79 1019.08 1019.30 1019.44 1019.48 1019.41 1019.27 1019.09 1018.90 1018.75 1018.68 1018.70 1018.80 1018.98 1019.18 1019.37
1005.26 1005.41 1005.65 1005.99 1006.44 1006.98 1007.59 1008.26 1008.96 1009.67 1010.36 1011.03 1011.68 1012.32 1012.93 1013.52 1014.10 1014.64 1015.14 1015.60 1016.03 1016.42 1016.79 1017.15 1017.52 1017.91 1018.29 1018.67 1019.00 1019.27 1019.45 1019.52 1019.48 1019.37 1019.21 1019.04 1018.92 1018.86 1018.90 1019.02 1019.20 1019.41 1019.60
1005.40 1005.57 1005.82 1006.15 1006.56 1007.04 1007.58 1008.16 1008.77 1009.40 1010.05 1010.70 1011.35 1012.00 1012.65 1013.28 1013.88 1014.44 1014.96 1015.43 1015.85 1016.24 1016.61 1016.98 1017.37 1017.78 1018.19 1018.60 1018.97 1019.27 1019.48 1019.59 1019.59 1019.51 1019.37 1019.24 1019.13 1019.09 1019.14 1019.26 1019.43 1019.63 1019.80
Thickness
5775 5774 5768 5766 5764 5763 5762 5761 5760 5759 5757 5756 5754 5753 5751 5750 5748 5746 5745 5743 5742 5741 5739 5738 5737 5736 5735 5734 5733 5732 5731 5730 5729 5728 5728 5727 5727 5726 5725 5725 5725 5723 5721
5775 5771 5764 5763 5761 5760 5758 5757 5756 5755 5754 5753 5752 5750 5749 5747 5745 5744 5742 5741 5739 5738 5737 5735 5734 5733 5732 5730 5729 5728 5727 5726 5725 5725 5725 5724 5723 5722 5721 5721 5721 5719 5717
5770 5767 5760 5758 5757 5756 5755 5754 5753 5752 5751 5750 5749 5747 5746 5744 5743 5741 5740 5738 5736 5735 5734 5732 5731 5729 5728 5726 5725 5724 5723 5722 5722 5722 5723 5723 5720 5718 5718 5717 5716 5715 5714
5763 5761 5757 5754 5753 5752 5751 5750 5749 5748 5747 5746 5745 5744 5743 5741 5740 5738 5737 5735 5733 5732 5730 5729 5727 5726 5724 5723 5722 5721 5720 5719 5719 5720 5722 5721 5718 5715 5714 5713 5712 5711 5710
5755 5754 5752 5749 5748 5747 5746 5746 5745 5744 5743 5743 5742 5741 5739 5738 5736 5735 5733 5731 5730 5728 5726 5725 5723 5722 5720 5719 5718 5717 5716 5715 5716 5718 5718 5716 5714 5711 5710 5710 5709 5707 5706
5747 5748 5745 5743 5743 5742 5742 5741 5741 5740 5739 5739 5738 5737 5736 5734 5733 5731 5729 5727 5726 5724 5722 5721 5719 5718 5716 5715 5714 5713 5712 5712 5714 5715 5714 5713 5710 5708 5707 5706 5705 5704 5702
5740 5741 5739 5737 5737 5737 5737 5736 5736 5736 5735 5735 5734 5733 5732 5730 5729 5727 5725 5723 5721 5720 5718 5717 5715 5714 5712 5711 5710 5709 5709 5709 5712 5711 5710 5709 5706 5704 5703 5702 5701 5700 5698
5732 5734 5732 5730 5731 5731 5732 5732 5731 5731 5731 5730 5730 5729 5728 5726 5724 5722 5721 5719 5717 5716 5714 5713 5711 5710 5708 5707 5706 5706 5705 5706 5707 5707 5706 5704 5701 5700 5699 5698 5697 5695 5694
5723 5726 5726 5725 5725 5725 5726 5726 5726 5726 5726 5725 5725 5724 5723 5721 5719 5717 5716 5715 5713 5711 5710 5709 5707 5706 5705 5704 5703 5702 5702 5702 5704 5703 5702 5700 5697 5696 5695 5694 5693 5691 5690
5714 5718 5721 5721 5721 5721 5720 5720 5721 5721 5720 5720 5720 5719 5718 5716 5714 5712 5711 5710 5709 5707 5705 5704 5703 5702 5701 5700 5699 5698 5698 5699 5701 5700 5699 5696 5694 5693 5691 5690 5689 5687 5685
5705 5710 5714 5715 5717 5717 5717 5715 5715 5714 5714 5714 5714 5713 5712 5711 5710 5708 5707 5705 5704 5702 5701 5700 5699 5698 5697 5696 5695 5695 5695 5698 5698 5697 5695 5692 5690 5689 5688 5686 5685 5683 5681
5696 5702 5706 5709 5712 5712 5712 5710 5710 5710 5710 5711 5710 5709 5709 5708 5707 5705 5701 5700 5699 5698 5697 5695 5695 5694 5694 5694 5692 5692 5695 5695 5695 5693 5691 5688 5687 5686 5684 5683 5681 5679 5677
5692 5697 5701 5704 5706 5707 5707 5707 5707 5707 5706 5707 5707 5706 5705 5704 5702 5700 5697 5695 5694 5693 5693 5691 5691 5692 5693 5693 5692 5692 5692 5692 5692 5690 5688 5685 5683 5682 5681 5679 5678 5676 5674
5684 5690 5694 5698 5700 5701 5702 5703 5702 5703 5702 5703 5703 5702 5701 5700 5699 5697 5696 5694 5693 5692 5690 5690 5690 5690 5690 5690 5690 5690 5689 5689 5688 5687 5685 5681 5680 5679 5677 5676 5674 5673 5671
5676 5683 5687 5691 5694 5696 5697 5697 5697 5698 5698 5698 5697 5697 5697 5696 5695 5694 5693 5691 5690 5689 5688 5687 5687 5687 5687 5687 5686 5686 5685 5685 5684 5683 5682 5678 5676 5675 5674 5672 5671 5669 5667
5667 5675 5681 5685 5689 5691 5692 5692 5692 5693 5692 5692 5692 5692 5692 5692 5691 5689 5689 5687 5687 5685 5685 5684 5684 5683 5683 5683 5683 5682 5682 5681 5680 5679 5678 5676 5673 5672 5670 5669 5667 5666 5664
5662 5669 5673 5678 5682 5685 5687 5687 5688 5688 5687 5687 5686 5686 5686 5687 5686 5685 5684 5683 5683 5682 5681 5680 5679 5679 5679 5678 5678 5678 5678 5677 5676 5675 5674 5673 5671 5669 5667 5665 5664 5662 5660
5658 5663 5668 5673 5676 5679 5681 5682 5682 5682 5682 5682 5681 5681 5681 5681 5681 5680 5679 5679 5679 5677 5676 5676 5676 5675 5674 5673 5674 5673 5673 5672 5672 5672 5670 5669 5668 5666 5664 5662 5660 5658 5656
5652 5657 5662 5666 5670 5673 5674 5676 5676 5677 5676 5676 5676 5676 5676 5676 5676 5676 5676 5675 5674 5673 5673 5672 5671 5671 5670 5669 5668 5668 5668 5668 5667 5666 5666 5665 5663 5661 5660 5658 5655 5653 5651
5646 5651 5655 5659 5664 5666 5667 5668 5669 5670 5670 5671 5671 5671 5671 5672 5672 5672 5671 5671 5670 5669 5668 5667 5666 5665 5665 5664 5662 5661 5663 5663 5662 5662 5661 5660 5658 5656 5654 5653 5651 5649 5646
5640 5643 5648 5652 5657 5660 5660 5662 5662 5663 5664 5664 5666 5666 5666 5667 5667 5667 5667 5666 5666 5665 5665 5664 5661 5660 5658 5658 5655 5655 5657 5657 5657 5656 5656 5655 5653 5650 5648 5647 5645 5643 5641
5632 5637 5643 5646 5651 5654 5656 5658 5658 5658 5659 5659 5659 5660 5661 5661 5661 5662 5662 5661 5661 5660 5659 5659 5657 5654 5653 5652 5650 5648 5648 5651 5652 5650 5650 5648 5647 5644 5642 5640 5638 5636 5634
5626 5630 5636 5640 5644 5647 5650 5651 5651 5650 5650 5651 5653 5654 5656 5656 5656 5656 5656 5656 5655 5655 5654 5653 5652 5649 5647 5646 5645 5644 5642 5644 5646 5645 5643 5641 5639 5638 5636 5633 5631 5628 5626
5619 5625 5630 5634 5637 5641 5643 5644 5645 5645 5647 5650 5650 5650 5650 5650 5650 5650 5650 5650 5649 5649 5648 5647 5646 5645 5642 5640 5638 5638 5639 5640 5636 5636 5636 5635 5632 5630 5629 5625 5623 5620 5617
5614 5620 5625 5629 5630 5634 5636 5639 5640 5641 5642 5643 5643 5642 5642 5643 5643 5643 5643 5642 5642 5642 5642 5641 5639 5638 5637 5635 5633 5631 5629 5629 5629 5627 5627 5627 5625 5622 5620 5617 5615 5612 5609
5610 5613 5618 5622 5623 5627 5629 5631 5632 5633 5635 5634 5636 5636 5635 5635 5635 5636 5636 5635 5636 5635 5634 5634 5632 5631 5631 5629 5627 5626 5625 5623 5622 5620 5619 5620 5618 5616 5611 5608 5606 5603 5600